TJS-1

Last updated on Sun Apr 12 2026 00:02:53 GMT+0000 (Coordinated Universal Time)

1 40892U 15046A 26101.20461388 -.00000154 00000+0 00000+0 0 9990 2 40892 0.1491 83.2988 0005429 322.8012 22.0244 1.00271944 38896
UTC large
Height (km)
Speed (km/s)
/
Latitude / Longitude
Inclination (degrees)
Orbital Period (minutes)
Azimuth
Elevation
Range (km)
Doppler Factor

Next 0 passes for location: London (51.5072 / 0.1276)

Sorry there are no passes over London.
TJS-1